Location: Casalecchio di Reno
(44.4760°N, 11.2757°E)
Time: 14:03:29
(UTC+02:00)

UWE-3 - Visible Passes

Search period start: 18 June 2024 00:00
Search period end: 28 June 2024 00:00
Orbit: 568 x 651 km, 97.8° (Epoch: 17 June)

Date Brightness Start Highest point End Pass type
(mag) Time Alt. Az. Time Alt. Az. Time Alt. Az.
18 Jun ? 03:57:19 10° N 04:01:39 82° WNW 04:04:59 16° SSW visible
19 Jun ? 02:37:19 10° ENE 02:39:27 13° E 02:41:33 10° ESE visible
19 Jun ? 04:11:33 10° N 04:15:46 57° WNW 04:19:17 14° SSW visible
20 Jun ? 02:50:43 10° NE 02:53:46 19° E 02:56:38 10° SE visible
20 Jun ? 04:25:52 10° N 04:29:53 40° WNW 04:33:35 11° SW visible
21 Jun ? 03:04:27 10° NE 03:08:03 26° E 03:10:55 13° SSE visible
21 Jun ? 04:40:15 10° N 04:43:56 29° WNW 04:47:32 10° SW visible
22 Jun ? 03:18:20 10° NNE 03:22:17 36° E 03:25:12 16° SSE visible
23 Jun ? 03:32:19 10° NNE 03:36:28 52° E 03:39:28 17° S visible
24 Jun ? 03:46:24 10° NNE 03:50:38 76° ESE 03:53:44 17° S visible
25 Jun ? 04:00:32 10° N 04:04:45 75° WNW 04:07:58 16° SSW visible
26 Jun ? 02:40:18 10° ENE 02:42:34 14° E 02:44:47 10° ESE visible
26 Jun ? 04:14:45 10° N 04:18:50 52° WNW 04:22:13 14° SW visible
27 Jun ? 02:53:44 10° NE 02:56:49 20° E 02:59:30 11° SE visible
27 Jun ? 04:29:01 10° N 04:32:53 36° WNW 04:36:27 11° SW visible
